FW5856 Weather Reports


Display with metric or nautical units.
time (UTC)temp
F
wind
direction
speed
MPH
gust
MPH
rain 1hr
in
rain 24hr
in
rain mn
in
humidity
%
barometer
mb
20260507001552 53 278 16.0 23.0 0.00 0.00 0.00 34 1014.4
20260507000051 54 295 13.0 28.0 0.00 0.00 0.00 35 1014.3
20260506234552 53 300 15.0 22.0 0.00 0.00 0.00 36 1014.5
20260506233047 54 286 14.0 21.0 0.00 0.00 0.00 34 1014.5
20260506231549 54 289 13.0 18.0 0.00 0.00 0.00 35 1014.6
20260506230045 53 307 12.0 23.0 0.00 0.00 0.00 37 1014.6
20260506224542 53 322 18.0 26.0 0.00 0.00 0.00 36 1014.6
20260506223038 54 303 15.0 25.0 0.00 0.00 0.00 35 1014.9
20260506221549 54 297 18.0 24.0 0.00 0.00 0.00 36 1015.0
20260506220039 54 289 18.0 27.0 0.00 0.00 0.00 36 1014.9
20260506214545 52 311 9.0 21.0 0.00 0.00 0.00 41 1015.0
20260506213042 52 319 11.0 21.0 0.00 0.00 0.00 39 1015.3
20260506211540 52 322 15.0 21.0 0.00 0.00 0.00 39 1015.4
20260506210051 51 303 15.0 22.0 0.00 0.00 0.00 39 1015.7
20260506204549 52 276 17.0 23.0 0.00 0.00 0.00 39 1015.9
20260506203051 51 301 13.0 21.0 0.00 0.00 0.00 40 1016.0
20260506201606 51 290 11.0 22.0 0.00 0.00 0.00 42 1016.1
20260506200050 50 293 10.0 29.0 0.00 0.00 0.00 43 1016.2
20260506194552 50 271 11.0 23.0 0.00 0.00 0.00 43 1016.4
20260506193051 50 299 16.0 23.0 0.00 0.00 0.00 44 1016.5
20260506191546 50 287 13.0 25.0 0.00 0.00 0.00 43 1016.7
20260506190045 49 292 13.0 21.0 0.00 0.00 0.00 44 1016.6
20260506184550 49 327 13.0 24.0 0.00 0.00 0.00 44 1016.8
20260506183054 48 300 17.0 24.0 0.00 0.00 0.00 45 1017.1
20260506181550 48 298 16.0 26.0 0.00 0.00 0.00 48 1017.0
20260506180051 46 313 19.0 26.0 0.00 0.00 0.00 47 1017.3
20260506174545 46 315 16.0 22.0 0.00 0.00 0.00 48 1017.5
20260506173112 46 307 14.0 22.0 0.00 0.00 0.00 49 1017.5
20260506171553 45 292 11.0 22.0 0.00 0.00 0.00 50 1017.6
20260506170042 45 311 13.0 24.0 0.00 0.00 0.00 51 1018.0
20260506164546 45 302 12.0 21.0 0.00 0.00 0.00 53 1018.0
20260506163101 44 340 9.0 18.0 0.00 0.00 0.00 54 1018.1
20260506161545 45 319 13.0 19.0 0.00 0.00 0.00 53 1018.1
20260506160046 44 331 10.0 17.0 0.00 0.00 0.00 56 1018.1
20260506154547 43 305 9.0 18.0 0.00 0.00 0.00 56 1018.3
20260506153048 43 299 10.0 16.0 0.00 0.00 0.00 57 1018.3
20260506151546 42 285 10.0 13.0 0.00 0.00 0.00 57 1018.4
20260506150116 42 309 10.0 15.0 0.00 0.00 0.00 59 1018.3
20260506144547 41 295 8.0 14.0 0.00 0.00 0.00 59 1018.3
20260506143042 40 305 6.0 11.0 0.00 0.00 0.00 63 1018.4
20260506141554 40 287 3.0 7.0 0.00 0.00 0.00 67 1018.4
20260506140055 39 304 5.0 8.0 0.00 0.00 0.00 68 1018.3
20260506134546 38 309 3.0 6.0 0.00 0.00 0.00 72 1018.2
20260506133045 36 302 5.0 7.0 0.00 0.00 0.00 72 1018.1
20260506131543 36 309 4.0 6.0 0.00 0.00 0.00 73 1018.1
20260506130053 35 304 2.0 5.0 0.00 0.00 0.00 75 1017.9
20260506124540 34 0 0.0 3.0 0.00 0.00 0.00 77 1017.8
20260506123049 33 320 1.0 3.0 0.00 0.00 0.00 77 1017.7
20260506121545 31 329 0.0 2.0 0.00 0.00 0.00 78 1017.6
20260506120050 30 329 1.0 4.0 0.00 0.00 0.00 78 1017.3
20260506114549 30 329 0.0 4.0 0.00 0.00 0.00 78 1017.1
20260506113048 29 324 1.0 4.0 0.00 0.00 0.00 79 1016.7
20260506111552 28 297 1.0 3.0 0.00 0.00 0.00 79 1016.5
20260506110047 29 310 0.0 1.0 0.00 0.00 0.00 78 1016.3
20260506104545 29 0 0.0 2.0 0.00 0.00 0.00 77 1016.5
20260506103046 28 310 1.0 3.0 0.00 0.00 0.00 78 1016.4
20260506101548 29 288 0.0 2.0 0.00 0.00 0.00 77 1016.2
20260506100047 29 0 1.0 2.0 0.00 0.00 0.00 76 1016.2
20260506094548 29 288 1.0 2.0 0.00 0.00 0.00 76 1016.0
20260506093103 29 252 1.0 2.0 0.00 0.00 0.00 76 1016.0
20260506091546 31 348 1.0 4.0 0.00 0.00 0.00 73 1015.7
20260506090055 31 339 3.0 6.0 0.00 0.00 0.00 72 1015.9
20260506084542 31 331 2.0 3.0 0.00 0.00 0.00 73 1015.6
20260506083043 30 330 2.0 3.0 0.00 0.00 0.00 73 1015.3
20260506081548 30 330 2.0 3.0 0.00 0.00 0.00 73 1015.3
20260506073042 31 319 3.0 5.0 0.00 0.00 0.00 70 1015.6
20260506071548 32 0 0.0 2.0 0.00 0.00 0.00 70 1015.6
20260506061556 35 303 3.0 5.0 0.00 0.00 0.00 65 1015.3
20260506044541 37 311 3.0 4.0 0.00 0.00 0.00 61 1015.0
20260506043052 38 340 3.0 6.0 0.00 0.00 0.00 60 1015.2
20260506041602 38 311 5.0 7.0 0.00 0.00 0.00 59 1015.2
20260506040054 39 302 4.0 6.0 0.00 0.00 0.00 58 1015.2
20260506034544 39 323 2.0 5.0 0.00 0.00 0.00 58 1015.1
20260506033043 39 308 3.0 5.0 0.00 0.00 0.00 57 1015.0
20260506031544 40 308 4.0 6.0 0.00 0.00 0.00 55 1015.0
20260506030038 41 302 4.0 7.0 0.00 0.00 0.00 54 1014.8
20260506024550 41 320 5.0 9.0 0.00 0.00 0.00 53 1014.7
20260506023052 42 328 5.0 8.0 0.00 0.00 0.00 52 1014.3
20260506021547 43 335 6.0 10.0 0.00 0.00 0.00 51 1014.0
20260506020116 43 324 6.0 10.0 0.00 0.00 0.00 51 1013.8
20260506014552 44 331 5.0 10.0 0.00 0.00 0.00 50 1013.6
20260506013045 45 335 6.0 17.0 0.00 0.00 0.00 48 1013.6
20260506011550 46 335 9.0 19.0 0.00 0.00 0.00 46 1013.4
20260506010049 47 329 10.0 17.0 0.00 0.00 0.00 46 1013.3
20260506004547 46 316 9.0 18.0 0.00 0.00 0.00 46 1013.1
20260506003052 47 310 10.0 24.0 0.00 0.00 0.00 44 1012.9